This demonstration page uses our WeatherBlox Daily Observations layout. Learn more.

Left ArrowRight Arrow

34.02893, -84.19858

Hourly Observations for April 23, 2019

Temp ( °F °C ) Dew Point ( °F °C ) Humidity (%) Winds ( mph kmh ) Pressure ( in mb ) Visibility ( mi km ) Precip ( " mm )
12:53 am 00:53 Clear 56 13.3 52 11.1 87 87 Calm 30.12 1020 10 16 0.00 0.00
2:53 am 02:53 Clear 52 11.1 51 10.6 97 97 Calm 30.09 1019 10 16 0.00 0.00
3:53 am 03:53 Clear 52 11.1 51 10.6 97 97 Calm 30.09 1019 10 16 0.00 0.00
4:53 am 04:53 Clear 51 10.6 50 10 96 96 Calm 30.09 1019 10 16 0.00 0.00
5:53 am 05:53 Clear 51 10.6 49 9.4 92 92 Calm 30.09 1019 10 16 0.00 0.00
6:53 am 06:53 Clear 50 10 49 9.4 96 96 Calm 30.10 1019 10 16 0.00 0.00
7:53 am 07:53 Sunny 53 11.7 53 11.7 100 100 Calm 30.12 1020 10 16 0.00 0.00
8:53 am 08:53 Sunny 62 16.7 55 12.8 78 78 Calm 30.12 1020 10 16 0.00 0.00
9:53 am 09:53 Sunny 70 21.1 50 10 49 49 NW 6 9 30.12 1020 10 16 0.00 0.00
10:53 am 10:53 Sunny 74 23.3 52 11.1 46 46 W 3 6 30.12 1020 10 16 0.00 0.00
11:53 am 11:53 Sunny 77 25 52 11.1 42 42 WNW 5 7 30.11 1020 10 16 0.00 0.00
12:53 pm 12:53 Sunny 78 25.6 50 10 37 37 W 10 17 30.10 1019 10 16 0.00 0.00
1:53 pm 13:53 Sunny 80 26.7 50 10 35 35 WSW 10 17 30.08 1019 10 16 0.00 0.00
2:53 pm 14:53 Sunny 80 26.7 52 11.1 38 38 W 12 19 30.06 1018 10 16 0.00 0.00
3:53 pm 15:53 Sunny 81 27.2 50 10 34 34 W 9 15 30.04 1017 10 16 0.00 0.00
4:53 pm 16:53 Sunny 79 26.1 48 8.9 34 34 SW 12 19 30.02 1017 10 16 0.00 0.00
5:53 pm 17:53 Sunny 78 25.6 51 10.6 39 39 SSW 10 17 30.01 1016 10 16 0.00 0.00
6:53 pm 18:53 Sunny 78 25.6 51 10.6 39 39 SW 9 15 30.01 1016 10 16 0.00 0.00
7:53 pm 19:53 Sunny 75 23.9 50 10 41 41 WSW 6 9 30.01 1016 10 16 0.00 0.00
8:53 pm 20:53 Clear 71 21.7 50 10 47 47 WSW 5 7 30.02 1017 10 16 0.00 0.00
9:53 pm 21:53 Clear 68 20 52 11.1 57 57 WSW 3 6 30.02 1017 10 16 0.00 0.00
10:53 pm 22:53 Clear 66 18.9 52 11.1 61 61 Calm 30.02 1017 10 16 0.00 0.00
11:53 pm 23:53 Clear 63 17.2 53 11.7 70 70 Calm 30.01 1016 10 16 0.00 0.00

Powered by AerisWeather